TimePST,TemperatureF,Dew PointF,Humidity,Sea Level PressureIn,VisibilityMPH,Wind Direction,Wind SpeedMPH,Gust SpeedMPH,PrecipitationIn,Events,Conditions,WindDirDegrees,DateUTC
12:53 AM,45.0,39.9,82,30.17,10.0,Calm,Calm,-,N/A,,Clear,0,2012-12-10 08:53:00
1:53 AM,45.0,39.9,82,30.18,10.0,NW,4.6,-,N/A,,Clear,310,2012-12-10 09:53:00
2:53 AM,46.9,39.9,77,30.18,10.0,NE,5.8,-,N/A,,Clear,50,2012-12-10 10:53:00
3:53 AM,44.1,39.9,85,30.18,10.0,NW,4.6,-,N/A,,Clear,310,2012-12-10 11:53:00
4:53 AM,44.1,39.0,82,30.18,10.0,NW,4.6,-,N/A,,Clear,310,2012-12-10 12:53:00
5:53 AM,44.1,39.9,85,30.18,10.0,NW,3.5,-,N/A,,Clear,320,2012-12-10 13:53:00
6:53 AM,44.1,39.0,82,30.18,10.0,Calm,Calm,-,N/A,,Clear,0,2012-12-10 14:53:00
7:53 AM,48.9,39.9,71,30.20,10.0,NE,4.6,-,N/A,,Clear,50,2012-12-10 15:53:00
8:53 AM,53.1,42.1,66,30.20,10.0,Calm,Calm,-,N/A,,Clear,0,2012-12-10 16:53:00
9:53 AM,59.0,44.1,58,30.22,10.0,East,5.8,-,N/A,,Clear,100,2012-12-10 17:53:00
10:53 AM,63.0,43.0,48,30.22,10.0,ENE,6.9,-,N/A,,Clear,70,2012-12-10 18:53:00
11:53 AM,64.9,43.0,45,30.18,10.0,Calm,Calm,-,N/A,,Clear,0,2012-12-10 19:53:00
12:53 PM,66.9,43.0,42,30.15,10.0,Calm,Calm,-,N/A,,Clear,0,2012-12-10 20:53:00
1:53 PM,69.1,44.1,40,30.13,10.0,Calm,Calm,-,N/A,,Clear,0,2012-12-10 21:53:00
2:53 PM,69.1,45.0,42,30.12,10.0,Variable,3.5,-,N/A,,Clear,0,2012-12-10 22:53:00
3:53 PM,64.9,46.9,52,30.11,10.0,WSW,3.5,-,N/A,,Clear,240,2012-12-10 23:53:00
4:53 PM,60.1,46.9,62,30.12,10.0,West,3.5,-,N/A,,Clear,270,2012-12-11 00:53:00
5:53 PM,55.9,48.0,75,30.11,10.0,WNW,6.9,-,N/A,,Clear,300,2012-12-11 01:53:00
6:53 PM,53.1,46.9,80,30.12,10.0,Calm,Calm,-,N/A,,Clear,0,2012-12-11 02:53:00
7:53 PM,51.1,46.0,83,30.13,9.0,Calm,Calm,-,N/A,,Clear,0,2012-12-11 03:53:00
8:53 PM,48.9,44.1,83,30.13,10.0,NW,4.6,-,N/A,,Clear,310,2012-12-11 04:53:00
9:53 PM,48.9,43.0,80,30.12,10.0,NW,5.8,-,N/A,,Clear,320,2012-12-11 05:53:00
10:53 PM,46.0,42.1,86,30.12,10.0,Calm,Calm,-,N/A,,Clear,0,2012-12-11 06:53:00
11:53 PM,46.0,42.1,86,30.11,10.0,NW,4.6,-,N/A,,Clear,310,2012-12-11 07:53:00